Flag for Germany Weather past 2 weeks in Germering, Bavaria, Germany

Now
73 °F

Sunny.


Feels Like: 76 °F
Forecast: 60 / 70 °F
Wind: 6 mph from East

Location: Oberpfaffenhofen

Current Time: Jul 28, 2014 at 11:20:46 PM

Latest Report: Jul 28, 2014 at 8:20 PM


Visibility: 10 mi

Pressure: 29.80 "Hg

Humidity: 61%

Dew point: 59 °F

Location of GermeringLocation

Historic Weather in Germering — Graph

°F

Germering temperature yesterday

Past Weeks' High & Low Weather Summary

 TemperatureHumidityPressure
High90 °F (Jul 19, 5:50 PM)100% (Jul 16, 6:50 AM)30.24 "Hg (Jul 16, 6:50 AM)
Low52 °F (Jul 24, 6:50 AM)21% (Jul 19, 5:20 PM)29.80 "Hg (Jul 28, 5:50 PM)
Average70 °F61%30.02 "Hg
* Reported Jul 14 6:50 AM — Jul 28 8:20 PM, Germering, Weather by CustomWeather, © 2014

Note: Actual official high and low records may vary slightly from our data, if they occured in-between our weather recording intervals... More about our weather records

Advertising

Germering weather history for previous 24 hours

 ConditionsComfort  
Time TempWeatherWind HumidityBarometerVisibility
8:20 PM
Jul 28
73 °FSunny.6 mph61%29.80 "Hg10 mi
7:50 PM73 °FScattered clouds.8 mph61%29.80 "HgN/A
7:20 PM75 °FScattered clouds.9 mph57%29.80 "HgN/A
6:50 PM75 °FPassing clouds.12 mph54%29.80 "HgN/A
6:20 PM77 °FScattered clouds.9 mph51%29.83 "HgN/A
5:50 PM75 °FScattered clouds.9 mph54%29.80 "HgN/A
5:20 PM75 °FScattered clouds.10 mph54%29.83 "HgN/A
4:50 PM75 °FScattered clouds.12 mph57%29.83 "HgN/A
4:20 PM75 °FScattered clouds.6 mph57%29.83 "HgN/A
3:50 PM75 °FScattered clouds.10 mph57%29.83 "HgN/A
3:20 PM77 °FScattered clouds.7 mph57%29.86 "HgN/A
2:50 PM75 °FScattered clouds.7 mph57%29.86 "HgN/A
2:20 PM73 °FScattered clouds.10 mph61%29.89 "HgN/A
1:50 PM73 °FScattered clouds.7 mph65%29.89 "HgN/A
1:20 PM73 °FScattered clouds.5 mph61%29.92 "HgN/A
12:50 PM73 °FScattered clouds.5 mph61%29.92 "HgN/A
12:20 PM72 °FScattered clouds.2 mph65%29.92 "HgN/A
11:50 AM72 °FScattered clouds.3 mph65%29.92 "HgN/A
11:20 AM70 °FScattered clouds.3 mph69%29.95 "HgN/A
10:50 AM70 °FScattered clouds.2 mph69%29.95 "HgN/A
10:20 AM70 °FSunny.1 mph69%29.95 "Hg10 mi
9:50 AM66 °FSunny.2 mph73%29.95 "Hg10 mi
9:20 AM66 °FSunny.2 mph78%29.95 "Hg10 mi
8:50 AM64 °FSunny.1 mph83%29.98 "Hg10 mi
8:20 AM63 °FSunny.3 mph88%29.98 "Hg10 mi
7:50 AM61 °FSunny.1 mph94%29.98 "Hg10 mi
7:20 AM57 °FSunny.2 mph100%29.98 "Hg10 mi
6:50 AM55 °FSunny.No wind94%29.98 "Hg10 mi
Weather by CustomWeather, © 2014

See weather overviewHow to use our weather pages